Location: Asbacherhof
(48.8543°N, 10.7903°E)
Time: 16:58:59
(UTC+00:00)

Cosmos 1656 Rocket - Pass Details

Date: 26 May 2022
Orbit: 796 x 845 km, 71.1° (Epoch: 06 July)

Event Time Altitude Azimuth Distance (km) Brightness Sun altitude
Rises 02:00:24 0° 331° (NNW) 3,314 7.1 -10.8°
Reaches altitude 10° 02:02:49 10° 332° (NNW) 2,378 6.3 -10.6°
Maximum altitude 02:08:16 89° 247° (WSW) 804 3.6 -10.0°
Drops below altitude 10° 02:13:41 10° 155° (SSE) 2,369 5.8 -9.4°
Sets 02:16:05 0° 155° (SSE) 3,299 6.6 -9.1°
